YAOGAN-13

Last updated on Sat Feb 22 2025 00:02:26 GMT+0000 (Coordinated Universal Time)

1 37941U 11072A 25051.85884693 .02669013 26651-5 99200-3 0 9994 2 37941 97.6982 64.9878 0002875 180.2254 269.2511 16.24539223735359

Satellite not in orbit

YAOGAN-13